F5ZQC-13 Weather Reports


Display with metric or nautical units.
time (UTC)temp
F
wind
direction
speed
MPH
gust
MPH
rain 1hr
in
rain 24hr
in
rain mn
in
humidity
%
barometer
mb
20260831192016 288 315 6.0 6.0 0.00 0.00 0.00 45 5318.5
20260831191929 288 315 6.0 6.0 0.00 0.00 0.00 45 5318.5
20260831191727 -27 337 3.0 129.0 0.00 0.00 0.00 44 5318.5
20260831191235 288 337 3.0 6.0 0.00 0.00 0.00 44 5318.5
20260831191033 715 292 6.0 129.0 0.00 0.00 0.00 44 1799.3
20260831190831 -31 337 4.0 129.0 0.00 0.00 0.00 45 5318.5
20260831190700 327 337 5.0 6.0 0.00 0.00 0.00 45 5318.5
20260831190456 288 292 4.0 6.0 0.00 0.00 0.00 45 5318.5
20260831185951 584 337 128.0 128.0 0.00 0.00 0.00 44 5318.5
20260831185609 157 337 5.0 6.0 0.00 0.00 0.00 44 5318.5
20260831185406 118 315 5.0 6.0 0.00 0.00 0.00 44 5318.5
20260831185001 173 292 4.0 6.0 0.00 0.00 0.00 44 5318.5
20260831184557 228 337 3.0 7.0 0.00 0.00 0.00 44 5318.5
20260831184355 -31 337 3.0 6.0 0.00 0.00 0.00 44 5318.5
20260831184153 715 303 5.0 6.0 0.00 0.00 0.00 44 1799.4
20260831183952 -27 337 4.0 5.0 0.00 0.00 0.00 44 5318.5
20260831183749 -31 337 3.0 5.0 0.00 0.00 0.00 44 5318.5
20260831183547 -22 337 3.0 6.0 0.00 0.00 0.00 44 5318.5
20260831183345 -26 337 4.0 6.0 0.00 0.00 0.00 44 5318.5
20260831182940 715 337 4.0 5.0 0.00 0.00 0.00 44 1799.4
20260831182738 -11 292 3.0 7.0 0.00 0.00 0.00 43 5318.5
20260831182536 -15 337 5.0 7.0 0.00 0.00 0.00 44 5318.5
20260831182335 -56 292 5.0 5.0 0.00 0.00 0.00 44 4010.3
20260831182133 -95 337 5.0 6.0 0.00 0.00 0.00 43 5318.5
20260831181930 -14 337 5.0 6.0 0.00 0.00 0.00 44 5318.5
20260831181526 538 337 6.0 6.0 0.00 0.00 0.00 43 5318.5
20260831181122 109 337 4.0 7.0 0.00 0.00 0.00 43 5318.5
20260831180920 715 292 5.0 7.0 0.00 0.00 0.00 43 4420.8
20260831180717 49 315 5.0 6.0 0.00 0.00 0.00 43 5318.5
20260831180515 258 292 4.0 5.0 0.00 0.00 0.00 43 5318.5
20260831175707 -28 337 6.0 6.0 0.00 0.00 0.00 43 5318.5
20260831174657 715 292 2.0 6.0 0.00 0.00 0.00 43 1799.4
20260831174455 -12 337 6.0 7.0 0.00 0.00 0.00 42 5318.5
20260831174253 715 337 4.0 7.0 0.00 0.00 0.00 42 1799.4
20260831172838 998 225 6.0 9.0 0.00 0.00 0.00 42 5318.5
20260831172638 193 225 6.0 9.0 0.00 0.00 0.00 41 5318.5
20260831172434 155 225 4.0 9.0 0.00 0.00 0.00 42 5318.5
20260831172033 210 225 6.0 8.0 0.00 0.00 0.00 42 5318.5
20260831171828 304 337 5.0 9.0 0.00 0.00 0.00 42 5318.5
20260831171224 320 337 6.0 8.0 0.00 0.00 0.00 41 5318.5
20260831171029 -31 337 5.0 8.0 0.00 0.00 0.00 42 5318.5
20260831170615 -18 225 4.0 9.0 0.00 0.00 0.00 41 5318.5
20260831170009 -16 225 6.0 7.0 0.00 0.00 0.00 42 5318.5
20260831165605 -11 225 3.0 6.0 0.00 0.00 0.00 42 5318.5
20260831164959 354 337 5.0 7.0 0.00 0.00 0.00 41 5318.5
20260831164151 145 337 4.0 7.0 0.00 0.00 0.00 42 5318.5
20260831163544 715 337 7.0 9.0 0.00 0.00 0.00 42 1799.4
20260831163346 256 337 5.0 6.0 0.00 0.00 0.00 42 5318.5
20260831163141 -30 337 5.0 6.0 0.00 0.00 0.00 43 5318.5
20260831162938 311 225 5.0 6.0 0.00 0.00 0.00 42 5318.5
20260831162131 -23 225 6.0 8.0 0.00 0.00 0.00 42 5321.1
20260831161323 49 337 5.0 8.0 0.00 0.00 0.00 43 5318.5
20260831161122 715 337 7.0 7.0 0.00 0.00 0.00 42 1799.4
20260831155312 272 225 5.0 6.0 0.00 0.00 0.00 44 5318.5
20260831154856 327 337 6.0 7.0 0.00 0.00 0.00 43 1714.1
20260831154653 715 225 4.0 7.0 0.00 0.00 0.00 44 1799.4
20260831154451 -27 337 7.0 126.0 0.00 0.00 0.00 44 5318.5
20260831154146 -31 225 126.0 126.0 0.00 0.00 0.00 44 5318.5
20260831153958 49 315 7.0 7.0 0.00 0.00 0.00 44 5318.5
20260831153353 584 337 4.0 4.0 0.00 0.00 0.00 45 5318.5
20260831153114 -31 337 4.0 7.0 0.00 0.00 0.00 44 5318.5
20260831152912 -27 337 5.0 129.0 0.00 0.00 0.00 44 5318.5
20260831152708 -31 337 6.0 129.0 0.00 0.00 0.00 44 5318.5
20260831152511 327 337 6.0 8.0 0.00 0.00 0.00 43 5318.5
20260831152107 -27 337 7.0 129.0 0.00 0.00 0.00 44 5318.5
20260831151905 -31 337 6.0 129.0 0.00 0.00 0.00 44 5318.5
20260831151739 715 337 5.0 5.0 0.00 0.00 0.00 42 1799.4
20260831151030 584 337 129.0 129.0 0.00 0.00 0.00 44 5318.5
20260831150649 -27 337 6.0 127.0 0.00 0.00 0.00 44 5318.5
20260831150342 -31 337 127.0 127.0 0.00 0.00 0.00 43 5318.5
20260831150154 715 337 5.0 7.0 0.00 0.00 0.00 42 4420.7
20260831145951 -27 337 6.0 129.0 0.00 0.00 0.00 44 5318.5
20260831145647 584 337 129.0 129.0 0.00 0.00 0.00 44 5318.5
20260831145457 715 337 3.0 7.0 0.00 0.00 0.00 42 4420.8
20260831145054 -14 337 5.0 7.0 0.00 0.00 0.00 43 5318.5
20260831144851 -52 326 5.0 7.0 0.00 0.00 0.00 43 5318.5
20260831144648 -90 348 3.0 6.0 0.00 0.00 0.00 43 5318.5
20260831144447 32 337 6.0 6.0 0.00 0.00 0.00 44 5318.5
20260831144244 715 225 4.0 6.0 0.00 0.00 0.00 43 1799.4
20260831143900 288 337 6.0 6.0 0.00 0.00 0.00 43 5318.5
20260831143658 715 337 5.0 129.0 0.00 0.00 0.00 45 4420.6
20260831143454 -31 337 7.0 129.0 0.00 0.00 0.00 44 5318.5
20260831143156 288 337 5.0 6.0 0.00 0.00 0.00 44 5318.5
20260831142751 -31 337 4.0 130.0 0.00 0.00 0.00 44 5318.5
20260831142649 584 337 130.0 130.0 0.00 0.00 0.00 40 5318.5
20260831142537 715 337 5.0 5.0 0.00 0.00 0.00 44 4420.8
20260831142335 288 337 4.0 6.0 0.00 0.00 0.00 43 5318.5
20260831141933 -31 337 5.0 128.0 0.00 0.00 0.00 43 5318.5
20260831141829 32 337 128.0 128.0 0.00 0.00 0.00 43 5318.5
20260831141745 -14 337 2.0 5.0 0.00 0.00 0.00 45 5318.5
20260831141542 -52 337 2.0 5.0 0.00 0.00 0.00 45 5318.5
20260831141340 -90 337 3.0 5.0 0.00 0.00 0.00 43 5318.5
20260831140735 584 337 3.0 3.0 0.00 0.00 0.00 44 5321.1
20260831140513 -90 337 4.0 6.0 0.00 0.00 0.00 44 5318.5
20260831135908 584 225 1.0 1.0 0.00 0.00 0.00 45 5318.5
20260831135508 272 337 3.0 4.0 0.00 0.00 0.00 44 5318.5
20260831135106 327 225 2.0 4.0 0.00 0.00 0.00 44 5318.5
20260831134901 288 337 2.0 4.0 0.00 0.00 0.00 45 5318.5
20260831134703 -27 337 4.0 127.0 0.00 0.00 0.00 45 5318.5
20260831133938 715 337 1.0 125.0 0.00 0.00 0.00 44 1799.3
20260831133902 715 337 1.0 125.0 0.00 0.00 0.00 44 1799.3
20260831133700 -31 292 3.0 125.0 0.00 0.00 0.00 44 5318.5
20260831133559 584 315 125.0 125.0 0.00 0.00 0.00 44 5318.5
20260831133421 -90 270 1.0 3.0 0.00 0.00 0.00 44 5318.5
20260831133224 32 270 2.0 3.0 0.00 0.00 0.00 44 5318.5
20260831133017 973 270 2.0 2.0 0.00 0.00 0.00 44 5318.5
20260831132815 584 270 1.0 1.0 0.00 0.00 0.00 44 5318.5
20260831132426 288 270 1.0 2.0 0.00 0.00 0.00 44 5318.5
20260831132224 -27 270 0.0 125.0 0.00 0.00 0.00 44 5318.5
20260831132021 -31 270 2.0 125.0 0.00 0.00 0.00 44 5318.5
20260831131920 32 270 125.0 125.0 0.00 0.00 0.00 44 5320.2
20260831131446 124 315 1.0 3.0 0.00 0.00 0.00 45 5318.5
20260831131244 106 270 1.0 3.0 0.00 0.00 0.00 45 5318.5
20260831130436 216 315 1.0 5.0 0.00 0.00 0.00 44 5318.5
20260831130032 272 270 4.0 4.0 0.00 0.00 0.00 44 5318.5
20260831125830 715 270 2.0 3.0 0.00 0.00 0.00 44 1799.4
20260831125426 288 270 6.0 7.0 0.00 0.00 0.00 44 5318.5
20260831124849 124 315 4.0 7.0 0.00 0.00 0.00 43 5318.5
20260831124647 715 270 4.0 7.0 0.00 0.00 0.00 43 1799.4
20260831124445 714 270 7.0 7.0 0.00 0.00 0.00 44 4420.8
20260831124244 161 292 5.0 5.0 0.00 0.00 0.00 44 5318.5
20260831123839 216 315 2.0 4.0 0.00 0.00 0.00 46 5318.5
20260831123714 178 315 2.0 3.0 0.00 0.00 0.00 45 5318.5
20260831123638 178 315 2.0 3.0 0.00 0.00 0.00 45 5318.5
20260831123436 272 270 0.0 3.0 0.00 0.00 0.00 46 5318.5
20260831123238 233 315 2.0 4.0 0.00 0.00 0.00 45 5318.5
20260831122425 -31 326 3.0 128.0 0.00 0.00 0.00 49 5318.5
20260831122323 715 315 128.0 128.0 0.00 0.00 0.00 50 1799.4
20260831121915 -10 315 7.0 7.0 0.00 0.00 0.00 51 5318.5
20260831121714 -14 337 2.0 6.0 0.00 0.00 0.00 53 5318.5
20260831121511 715 337 3.0 6.0 0.00 0.00 0.00 53 1799.4
20260831120906 973 337 6.0 6.0 0.00 0.00 0.00 55 5318.5
20260831120645 327 337 5.0 7.0 0.00 0.00 0.00 55 5318.5
20260831120445 288 337 5.0 7.0 0.00 0.00 0.00 55 5318.5
20260831115937 584 337 128.0 128.0 0.00 0.00 0.00 56 5318.5
20260831115742 32 337 5.0 6.0 0.00 0.00 0.00 56 5318.5
20260831115541 973 337 4.0 6.0 0.00 0.00 0.00 56 5318.5
20260831115018 -13 337 4.0 8.0 0.00 0.00 0.00 55 5318.5
20260831114817 -42 337 3.0 8.0 0.00 0.00 0.00 56 5318.5
20260831114614 -81 337 5.0 7.0 0.00 0.00 0.00 56 5318.5
20260831114212 106 225 6.0 7.0 0.00 0.00 0.00 56 5321.1
20260831114008 676 337 4.0 7.0 0.00 0.00 0.00 56 5318.5
20260831113402 -31 337 3.0 5.0 0.00 0.00 0.00 56 5318.5
20260831113200 715 337 3.0 4.0 0.00 0.00 0.00 56 4420.6
20260831113057 714 225 3.0 5.0 0.00 0.00 0.00 56 4420.7
20260831112958 714 225 3.0 5.0 0.00 0.00 0.00 56 4420.7
20260831112757 714 337 3.0 5.0 0.00 0.00 0.00 56 4420.7
20260831112351 288 348 4.0 7.0 0.00 0.00 0.00 57 5318.5
20260831112149 -27 225 3.0 129.0 0.00 0.00 0.00 57 5318.5
20260831111949 -31 337 3.0 129.0 0.00 0.00 0.00 57 403.4
20260831111846 49 337 129.0 129.0 0.00 0.00 0.00 57 5318.5
20260831111514 124 337 3.0 5.0 0.00 0.00 0.00 57 5318.5
20260831111316 106 337 5.0 5.0 0.00 0.00 0.00 57 5318.5
20260831110706 715 337 3.0 4.0 0.00 0.00 0.00 58 1799.3
20260831110504 216 315 2.0 3.0 0.00 0.00 0.00 58 5318.5
20260831105858 233 270 2.0 3.0 0.00 0.00 0.00 58 5318.5
20260831105453 288 315 2.0 4.0 0.00 0.00 0.00 58 5318.5
20260831105255 -27 292 2.0 126.0 0.00 0.00 0.00 58 5318.5
20260831104948 715 270 126.0 126.0 0.00 0.00 0.00 58 1799.4
20260831104830 676 270 4.0 4.0 0.00 0.00 0.04 58 5318.5
20260831103820 272 225 0.0 2.0 0.00 0.00 0.04 59 5318.5
20260831103618 233 225 1.0 2.0 0.00 0.00 0.04 58 5318.5
20260831103416 327 337 1.0 2.0 0.00 0.00 0.04 59 5318.5
20260831103012 -27 292 0.0 1.0 0.00 0.00 0.04 59 5318.5
20260831102613 -21 225 0.0 2.0 0.00 0.00 0.04 59 5318.5
20260831102405 -25 337 0.0 2.0 0.00 0.00 0.04 59 5318.5
20260831102002 -20 315 0.0 1.0 0.00 0.00 0.04 58 5318.5
20260831101557 715 315 1.0 2.0 0.00 0.00 0.04 58 1799.4
20260831101356 -52 270 1.0 2.0 0.00 0.00 0.03 58 5318.5
20260831100952 32 315 1.0 1.0 0.00 0.00 0.03 58 5318.5
20260831095333 715 315 1.0 3.0 0.00 0.00 0.03 61 4420.8
20260831094928 265 315 2.0 3.0 0.00 0.00 0.03 61 5318.5
20260831094322 -24 337 0.0 3.0 0.00 0.00 0.03 62 5318.5
20260831093311 714 337 2.0 4.0 0.00 0.00 0.03 62 4420.7
20260831092907 -11 337 1.0 4.0 0.00 0.00 0.03 62 5318.5
20260831092704 -19 315 4.0 4.0 0.00 0.00 0.03 62 5318.5
20260831092502 743 337 4.0 4.0 0.00 0.00 0.03 63 5318.5
20260831092058 129 337 4.0 5.0 0.00 0.00 0.03 62 5318.5
20260831091857 906 326 4.0 6.0 0.00 0.00 0.03 63 5318.5
20260831091455 715 337 1.0 1.0 0.00 0.00 0.03 63 1799.4
20260831090846 295 337 2.0 3.0 0.00 0.00 0.03 63 5318.5
20260831090644 715 337 1.0 3.0 0.00 0.00 0.03 63 1799.3
20260831090241 311 337 2.0 3.0 0.00 0.00 0.03 63 5318.5
20260831085229 715 337 1.0 5.0 0.00 0.00 0.03 63 4420.8
20260831084421 -29 326 5.0 6.0 0.00 0.00 0.03 63 5318.5
20260831084219 715 337 4.0 6.0 0.00 0.00 0.03 63 4420.7
20260831083411 175 315 2.0 5.0 0.00 0.00 0.03 63 5318.5
20260831083007 230 315 4.0 5.0 0.00 0.00 0.03 63 5318.5
20260831082602 285 315 3.0 5.0 0.00 0.00 0.03 63 5321.1
20260831081755 -25 315 4.0 5.0 0.00 0.00 0.03 63 5318.5
20260831081552 715 337 4.0 5.0 0.00 0.00 0.03 63 1799.3
20260831081350 -20 337 4.0 6.0 0.00 0.00 0.03 63 5318.5
20260831080947 -14 337 4.0 4.0 0.00 0.00 0.03 64 5318.5
20260831080339 -13 315 2.0 5.0 0.00 0.00 0.03 63 5318.5
20260831075329 722 315 4.0 6.0 0.00 0.00 0.03 63 5318.5
20260831075127 166 337 4.0 5.0 0.00 0.00 0.03 64 5318.5
20260831074925 127 337 4.0 5.0 0.00 0.00 0.03 64 5321.1
20260831074724 221 315 4.0 5.0 0.00 0.00 0.03 63 5318.5
20260831074319 276 315 4.0 5.0 0.00 0.00 0.03 63 5318.5
20260831074117 237 315 3.0 5.0 0.00 0.00 0.03 63 5318.5
20260831073915 -32 315 3.0 5.0 0.00 0.00 0.03 64 5318.5
20260831073510 -26 315 4.0 6.0 0.00 0.00 0.03 64 5318.5
20260831073108 -21 0 2.0 3.0 0.00 0.00 0.03 63 5318.5
20260831072704 -15 315 3.0 4.0 0.00 0.00 0.03 63 5318.5
20260831072054 715 337 4.0 4.0 0.00 0.00 0.03 64 1799.4
20260831070842 143 0 2.0 5.0 0.00 0.00 0.02 64 5318.5
20260831070641 104 0 2.0 5.0 0.00 0.00 0.02 63 5318.5
20260831070034 715 315 4.0 5.0 0.00 0.00 0.02 63 1799.3
20260831065428 270 303 3.0 5.0 0.00 0.00 0.02 64 5318.5
20260831064823 49 303 2.0 5.0 0.00 0.00 0.02 64 5318.5
20260831064417 -18 292 1.0 6.0 0.00 0.00 0.02 64 5318.5
20260831064215 715 270 2.0 6.0 0.00 0.00 0.02 64 1799.4
20260831063611 -70 315 3.0 4.0 0.00 0.00 0.02 64 1714.1
20260831062154 189 315 2.0 3.0 0.00 0.00 0.01 64 5318.5
20260831061953 150 292 2.0 3.0 0.00 0.00 0.01 63 5318.5
20260831061754 244 315 3.0 3.0 0.00 0.00 0.01 63 5318.5
20260831061552 205 315 2.0 2.0 0.00 0.00 0.01 63 5318.5
20260831060336 -28 270 4.0 4.0 0.00 0.00 0.01 62 5318.5
20260831055325 715 315 0.0 2.0 0.00 0.00 0.01 62 1799.4
20260831055124 715 337 1.0 2.0 0.00 0.00 0.01 63 1799.4
20260831054922 -24 270 0.0 0.0 0.00 0.00 0.01 63 5318.5
20260831054720 697 315 0.0 1.0 0.00 0.00 0.01 63 5318.5
20260831054315 124 337 2.0 3.0 0.00 0.00 0.01 63 5318.5
20260831054113 715 315 2.0 2.0 0.00 0.00 0.01 62 1799.1
20260831053305 196 315 1.0 2.0 0.00 0.00 0.01 63 5318.5
20260831052901 251 270 1.0 4.0 0.00 0.00 0.01 64 5318.5
20260831052457 306 270 3.0 3.0 0.00 0.00 0.01 64 5318.5
20260831052255 -25 292 2.0 2.0 0.00 0.00 0.01 64 5318.5
20260831051649 32 326 1.0 3.0 0.00 0.00 0.01 63 5318.5
20260831051447 -14 315 0.0 3.0 0.00 0.00 0.01 63 5318.5
20260831051042 -88 0 0.0 4.0 0.00 0.00 0.01 63 5318.5
20260831050841 715 315 1.0 4.0 0.00 0.00 0.01 64 1799.4
20260831050639 49 337 2.0 4.0 0.00 0.00 0.01 63 5318.5
20260831045831 768 315 2.0 3.0 0.00 0.00 0.00 63 5318.5
20260831045426 132 0 0.0 1.0 0.00 0.00 0.00 62 5318.5
20260831045225 226 270 0.0 1.0 0.00 0.00 0.00 62 5318.5
20260831044819 281 292 0.0 2.0 0.00 0.00 0.00 64 5318.5
20260831044617 242 270 2.0 2.0 0.00 0.00 0.00 63 5318.5
20260831044417 -31 315 0.0 3.0 0.00 0.00 0.00 63 5318.5
20260831044215 297 337 3.0 3.0 0.00 0.00 0.00 63 5318.5
20260831044011 -26 270 2.0 2.0 0.00 0.00 0.00 63 5318.5
20260831043809 -30 315 0.0 3.0 0.00 0.00 0.00 63 5318.5
20260831043607 715 303 0.0 5.0 0.00 0.00 0.00 63 1799.4
20260831043408 -24 315 3.0 5.0 0.00 0.00 0.00 63 5318.5
20260831043000 -19 315 4.0 9.0 0.00 0.00 0.00 63 5318.5
20260831042758 -98 337 6.0 6.0 0.00 0.00 0.00 63 5318.5
20260831042355 -42 315 3.0 5.0 0.00 0.00 0.00 63 5318.5
20260831041950 124 0 3.0 6.0 0.00 0.00 0.00 63 5318.5
20260831041748 715 315 2.0 6.0 0.00 0.00 0.00 63 1799.4
20260831041546 676 315 4.0 5.0 0.00 0.00 0.00 63 5318.5
20260831041345 161 315 4.0 6.0 0.00 0.00 0.00 63 5318.5
20260831041143 122 315 4.0 6.0 0.00 0.00 0.00 63 4010.3
20260831040335 233 0 6.0 7.0 0.00 0.00 0.00 63 5318.5
20260831035929 288 0 4.0 4.0 0.00 0.00 0.00 63 5318.5
20260831035424 715 315 128.0 128.0 0.00 0.00 0.00 63 1799.1
20260831035229 178 303 4.0 5.0 0.00 0.00 0.01 62 5318.5
20260831034823 715 315 4.0 5.0 0.00 0.00 0.00 62 1799.1
20260831034620 327 315 2.0 5.0 0.00 0.00 0.00 62 5318.5
20260831034419 288 337 3.0 5.0 0.00 0.00 0.00 62 5318.5
20260831034216 -27 315 4.0 127.0 0.00 0.00 0.00 62 5318.5
20260831034014 -31 326 1.0 127.0 0.00 0.00 0.00 61 5318.5
20260831033912 584 270 127.0 127.0 0.00 0.00 0.00 61 5318.5
20260831033540 -27 315 5.0 127.0 0.00 0.00 0.00 61 5318.5
20260831033340 -31 315 5.0 127.0 0.00 0.00 0.00 61 5318.5
20260831033214 -52 292 5.0 6.0 0.00 0.00 0.00 61 5318.5
20260831033012 -90 315 3.0 6.0 0.00 0.00 0.00 61 5318.5
20260831032811 32 315 3.0 6.0 0.00 0.00 0.00 61 5318.5
20260831031946 32 281 4.0 7.0 0.00 0.00 0.00 60 5318.5
20260831031307 715 315 2.0 4.0 0.00 0.00 0.00 61 4420.8
20260831030535 715 292 1.0 2.0 0.00 0.00 0.00 60 4420.8
20260831030333 584 270 1.0 1.0 0.00 0.00 0.00 60 5318.5
20260831030017 -90 292 3.0 4.0 0.00 0.00 0.00 60 5318.5
20260831025154 32 292 3.0 3.0 0.00 0.00 0.01 59 5318.5
20260831024952 715 292 0.0 1.0 0.00 0.00 0.00 59 1799.4
20260831024751 714 292 0.0 0.0 0.00 0.00 0.00 59 4420.7
20260831024051 715 270 2.0 2.0 0.00 0.00 0.00 60 4420.7
20260831024026 715 315 2.0 4.0 0.00 0.00 0.00 60 1799.4
20260831023824 32 292 2.0 6.0 0.00 0.00 0.00 60 5318.5
20260831023621 973 326 3.0 6.0 0.00 0.00 0.00 59 5318.5
20260831023420 584 315 3.0 3.0 0.00 0.00 0.00 59 5318.5
20260831023234 -90 315 1.0 6.0 0.00 0.00 0.01 59 1714.1
20260831023032 32 303 4.0 6.0 0.00 0.00 0.01 57 5318.5
20260831022829 973 292 1.0 3.0 0.00 0.00 0.01 58 5318.5
20260831022358 32 303 0.0 2.0 0.00 0.00 0.00 58 5318.5
20260831021954 584 270 2.0 2.0 0.00 0.00 0.00 57 5318.5
20260831021925 327 270 3.0 5.0 0.00 0.00 0.01 57 5318.5
20260831021319 -31 292 0.0 125.0 0.00 0.00 0.00 57 5318.5
20260831021217 584 270 125.0 125.0 0.00 0.00 0.00 56 5318.5
20260831021138 -90 292 1.0 5.0 0.00 0.00 0.01 57 5318.5
20260831020533 584 315 3.0 3.0 0.00 0.00 0.01 55 5318.5
20260831020427 -10 292 3.0 6.0 0.00 0.00 0.02 55 5320.2
20260831020224 -14 292 2.0 6.0 0.00 0.00 0.02 55 5318.5
20260831015617 32 270 5.0 6.0 0.00 0.00 0.01 55 5318.5
20260831015415 973 315 4.0 4.0 0.00 0.00 0.01 55 5318.5
20260831015214 715 315 3.0 3.0 0.00 0.00 0.00 55 1799.4
20260831015046 584 270 3.0 3.0 0.00 0.00 0.00 55 5318.5
20260831014820 -27 292 5.0 127.0 0.00 0.00 0.01 55 5318.5
20260831014618 -31 270 1.0 127.0 0.00 0.00 0.01 56 5318.5
20260831014516 715 270 127.0 127.0 0.00 0.00 0.00 55 4420.8
20260831014348 288 315 4.0 6.0 0.00 0.00 0.02 55 5318.5
20260831013944 -31 315 3.0 125.0 0.00 0.00 0.01 55 5318.5
20260831013659 715 270 2.0 5.0 0.00 0.00 0.01 54 1799.4
20260831013502 973 270 3.0 5.0 0.00 0.00 0.01 54 5318.5
20260831013155 -90 315 3.0 4.0 0.00 0.00 0.01 55 5318.5
20260831012522 -90 315 3.0 6.0 0.00 0.00 0.01 55 5318.5
20260831012318 32 270 2.0 6.0 0.00 0.00 0.01 54 5318.5
20260831011915 584 292 2.0 2.0 0.00 0.00 0.00 54 5318.5
20260831011858 -90 303 3.0 6.0 0.00 0.00 0.01 54 5318.5
20260831011656 715 303 4.0 6.0 0.00 0.00 0.00 54 488.7
20260831011202 32 270 5.0 7.0 0.00 0.00 0.01 54 5318.5
20260831010949 973 315 5.0 7.0 0.00 0.00 0.01 53 5318.5
20260831010747 584 315 6.0 6.0 0.00 0.00 0.00 54 5318.5
20260831010328 49 337 3.0 6.0 0.00 0.00 0.00 54 5318.5
20260831010129 973 270 6.0 6.0 0.00 0.00 0.00 55 5318.5
20260831005923 715 315 0.0 0.0 0.00 0.00 0.00 56 4420.8
20260831005147 -90 303 0.0 3.0 0.00 0.00 0.00 56 5318.5
20260831004542 584 326 0.0 0.0 0.00 0.00 0.00 55 5318.5
20260831004503 714 315 3.0 4.0 0.00 0.00 0.00 54 4420.7
20260831003643 32 292 1.0 5.0 0.00 0.00 0.01 54 5318.5
20260831003442 973 348 0.0 5.0 0.00 0.00 0.01 54 5321.0
20260831003041 -18 315 0.0 2.0 0.00 0.00 0.00 53 5318.5
20260831002638 -12 292 0.0 123.0 0.00 0.00 0.00 54 5318.5
20260831002439 -90 315 0.0 2.0 0.00 0.00 0.01 54 5318.5
20260831002404 -90 315 0.0 2.0 0.00 0.00 0.01 54 5318.5
20260831002202 -31 270 0.0 2.0 0.00 0.00 0.00 54 5318.5
20260831001239 715 292 4.0 4.0 0.00 0.00 0.00 53 1799.3
20260831001036 715 315 1.0 1.0 0.00 0.00 0.00 53 4420.8
20260831000629 -27 292 0.0 125.0 0.00 0.00 0.00 51 5318.5
20260831000325 715 270 125.0 125.0 0.00 0.00 0.00 51 1799.1
20260831000145 -20 315 1.0 3.0 0.00 0.00 0.02 51 5318.5
20260830235538 -52 270 2.0 3.0 0.00 0.00 0.01 47 5318.5
20260830235339 -90 315 1.0 2.0 0.00 0.00 0.01 49 5318.5
20260830235134 715 292 2.0 4.0 0.00 0.00 0.01 49 1799.3
20260830234933 973 315 2.0 4.0 0.00 0.00 0.00 48 5320.2
20260830233953 715 270 3.0 3.0 0.00 0.00 0.02 48 1799.4
20260830233824 -23 315 1.0 4.0 0.00 0.00 0.02 48 5318.5
20260830233752 -23 315 1.0 4.0 0.00 0.00 0.02 48 5318.5
20260830233549 715 270 1.0 4.0 0.00 0.00 0.02 49 1799.4
20260830232743 -33 315 2.0 6.0 0.00 0.00 0.01 50 5318.5
20260830232540 -72 315 0.0 6.0 0.00 0.00 0.01 49 5318.5
20260830232338 216 315 6.0 6.0 0.00 0.00 0.01 49 5318.5
20260830231932 715 315 2.0 4.0 0.00 0.00 0.01 49 1799.4
20260830231528 715 270 4.0 4.0 0.00 0.00 0.00 48 1799.4
20260830231125 187 270 2.0 6.0 0.00 0.00 0.00 48 5318.5
20260830230316 297 315 0.0 4.0 0.00 0.00 0.00 47 5318.5
20260830230114 -26 315 1.0 4.0 0.00 0.00 0.00 47 5318.5
20260830225912 -30 270 3.0 4.0 0.00 0.00 0.00 46 5318.5
20260830225105 715 315 2.0 3.0 0.00 0.00 0.00 46 1799.4
20260830224700 -13 315 1.0 3.0 0.00 0.00 0.00 45 5318.5
20260830224255 715 270 3.0 6.0 0.00 0.00 0.00 45 4420.7
20260830224055 124 270 6.0 6.0 0.00 0.00 0.00 44 5318.5
20260830223851 715 270 3.0 6.0 0.00 0.00 0.00 44 1799.3
20260830223650 676 292 5.0 7.0 0.00 0.00 0.00 44 5318.5
20260830223244 122 315 4.0 8.0 0.00 0.00 0.00 44 5318.5
20260830223044 216 315 4.0 8.0 0.00 0.00 0.00 43 5318.5
20260830222640 272 315 3.0 6.0 0.00 0.00 0.00 43 5318.5
20260830222034 715 315 6.0 6.0 0.00 0.00 0.00 43 1799.4
20260830221427 715 292 0.0 6.0 0.00 0.00 0.00 43 1799.4
20260830221024 -16 315 1.0 6.0 0.00 0.00 0.00 42 5318.5
20260830220215 715 270 0.0 7.0 0.00 0.00 0.00 41 1799.4
20260830215608 973 270 5.0 5.0 0.00 0.00 0.00 41 5318.5
20260830215003 113 292 2.0 5.0 0.00 0.00 0.00 39 5318.5
20260830214558 168 292 2.0 4.0 0.00 0.00 0.00 39 5318.5
20260830214355 262 270 2.0 5.0 0.00 0.00 0.00 39 5318.5
20260830214153 224 292 1.0 5.0 0.00 0.00 0.00 39 5318.5
20260830213951 318 315 1.0 6.0 0.00 0.00 0.00 39 5318.5
20260830213550 -28 292 2.0 6.0 0.00 0.00 0.00 39 5318.5
20260830213345 -32 315 6.0 6.0 0.00 0.00 0.00 38 5318.5
20260830212941 715 270 2.0 5.0 0.00 0.00 0.00 38 1799.4
20260830212335 -11 292 3.0 6.0 0.00 0.00 0.00 38 5318.5
20260830212134 -15 292 5.0 6.0 0.00 0.00 0.00 37 5318.5
20260830211930 -61 292 4.0 7.0 0.00 0.00 0.00 38 5318.5
20260830211729 -10 315 2.0 7.0 0.00 0.00 0.00 37 5318.5
20260830211324 715 315 3.0 8.0 0.00 0.00 0.00 37 4420.6
20260830211124 492 315 1.0 8.0 0.00 0.00 0.00 37 5318.5
20260830210923 715 315 8.0 8.0 0.00 0.00 0.00 36 4420.8
20260830210314 159 292 1.0 3.0 0.00 0.00 0.00 36 5318.5
20260830205910 -31 315 2.0 6.0 0.00 0.00 0.00 35 5318.5
20260830205709 308 315 5.0 5.0 0.00 0.00 0.00 35 5318.5
20260830205506 270 292 4.0 6.0 0.00 0.00 0.00 35 5318.5
20260830205305 715 315 3.0 6.0 0.00 0.00 0.00 34 4420.8
20260830205103 715 270 3.0 10.0 0.00 0.00 0.00 34 1799.4
20260830204901 715 292 4.0 10.0 0.00 0.00 0.00 34 1799.3
20260830204254 -21 315 8.0 9.0 0.00 0.00 0.00 33 5318.5
20260830204051 -12 270 1.0 7.0 0.00 0.00 0.00 32 5318.5
20260830203850 -16 292 1.0 6.0 0.00 0.00 0.00 32 5318.5
20260830203647 715 315 5.0 6.0 0.00 0.00 0.00 32 1799.4
20260830203243 715 270 1.0 6.0 0.00 0.00 0.00 31 1799.4
20260830203042 789 281 0.0 6.0 0.00 0.00 0.00 30 5318.5
20260830202638 715 270 1.0 9.0 0.00 0.00 0.00 29 1799.4
20260830202435 952 270 9.0 9.0 0.00 0.00 0.00 29 5318.5
20260830202254 715 315 0.0 6.0 0.00 0.00 0.00 29 1799.4
20260830202050 242 270 3.0 6.0 0.00 0.00 0.00 29 5318.5
20260830201848 -31 270 4.0 5.0 0.00 0.00 0.00 28 5318.5
20260830201520 -26 315 2.0 2.0 0.00 0.00 0.00 28 5318.5
20260830201445 -26 315 2.0 2.0 0.00 0.00 0.00 28 5318.5
20260830201243 -30 315 2.0 2.0 0.00 0.00 0.00 28 5318.5
20260830201038 -20 270 2.0 3.0 0.00 0.00 0.00 28 5318.5
20260830200634 -15 315 2.0 2.0 0.00 0.00 0.00 27 5318.5
20260830200438 715 315 0.0 1.0 0.00 0.00 0.00 27 1799.4
20260830200028 715 270 0.0 2.0 0.00 0.00 0.00 27 4420.8
20260830195828 715 315 1.0 2.0 0.00 0.00 0.00 27 4420.8
20260830195018 676 270 2.0 3.0 0.00 0.00 0.00 27 5318.5
20260830194816 161 315 2.0 3.0 0.00 0.00 0.00 26 5318.5
20260830194412 216 315 2.0 3.0 0.00 0.00 0.00 26 5318.5
20260830194209 178 270 1.0 3.0 0.00 0.00 0.00 26 5318.5
20260830193805 233 270 1.0 4.0 0.00 0.00 0.00 25 5318.5
20260830193202 -27 270 3.0 3.0 0.00 0.00 0.00 25 5318.5
20260830193000 -31 270 0.0 5.0 0.00 0.00 0.00 25 5318.5
20260830192351 -16 315 3.0 7.0 0.00 0.00 0.00 23 5318.5